This is the latest recevied weather packets stored in our database for station/object SR8WXL-13. If no packets are shown the sender has not sent any weather packets the latest 10 day(s).
| Time | Temp. | Humidity | Pressure | Rain* | Wind** | Luminosity | Snow |
|---|---|---|---|---|---|---|---|
| 1787749796 | 21.11° C | 66% | 1034.8 hPa | 0 mm | - | - | - |
| 1787748921 | 21.11° C | 67% | 1034.7 hPa | 0 mm | - | - | - |
| 1787748076 | 20° C | 68% | 1034.7 hPa | 0 mm | - | - | - |
| 1787747295 | 20° C | 68% | 1034.4 hPa | 0 mm | - | - | - |
| 1787746490 | 21.11° C | 66% | 1034.6 hPa | 0 mm | - | - | - |
| 1787745701 | 20° C | 67% | 1034.4 hPa | 0 mm | - | - | - |
| 1787744920 | 20° C | 68% | 1034.6 hPa | 0 mm | - | - | - |
| 1787744174 | 20° C | 67% | 1034.6 hPa | 0 mm | - | - | - |
| 1787743326 | 18.89° C | 71% | 1034.7 hPa | 0 mm | - | - | - |
| 1787742484 | 17.78° C | 73% | 1034.6 hPa | 0 mm | - | - | - |
| 1787741652 | 17.78° C | 74% | 1034.8 hPa | 0 mm | - | - | - |
| 1787740782 | 17.78° C | 74% | 1034.9 hPa | 0 mm | - | - | - |
| 1787740060 | 17.78° C | 74% | 1034.9 hPa | 0 mm | - | - | - |
| 1787739169 | 17.78° C | 75% | 1034.7 hPa | 0 mm | - | - | - |
| 1787738295 | 17.22° C | 77% | 1034.8 hPa | 0 mm | - | - | - |
| 1787737430 | 17.22° C | 77% | 1034.8 hPa | 0 mm | - | - | - |
| 1787736549 | 17.22° C | 78% | 1034.8 hPa | 0 mm | - | - | - |
| 1787735694 | 17.22° C | 78% | 1034.5 hPa | 0 mm | - | - | - |
| 1787734894 | 16.11° C | 78% | 1034.7 hPa | 0 mm | - | - | - |
| 1787734075 | 17.22° C | 78% | 1034.6 hPa | 0 mm | - | - | - |
| 1787733251 | 17.22° C | 78% | 1034.5 hPa | 0 mm | - | - | - |
| 1787732425 | 16.11° C | 79% | 1034.3 hPa | 0 mm | - | - | - |
| 1787731604 | 16.11° C | 79% | 1034.3 hPa | 0 mm | - | - | - |
| 1787730840 | 16.11° C | 80% | 1034.3 hPa | 0 mm | - | - | - |
| 1787730119 | 15° C | 81% | 1034 hPa | 0 mm | - | - | - |
* Rain latest hour (hover to see other rain measurements)
** Current wind speed in m/s (hover to see current wind gust speed)